Wetterdaten am Flugplatz MSG Übersee

alte Datensätze gelöscht
93 aktuelle Wetterdateneinträge gefunden

Datum/Uhrzeit   Windrichtung/Grad    Geschw./kmh    Temp./C°    Luftdruck/mbar    Spannung/Volt   
2026-05-07 00:00 NW/300 3 14 1013 12,54
2026-05-07 00:10 NW/294 2 14 1014 12,46
2026-05-07 00:20 W/292 1 14 1014 12,49
2026-05-07 00:30 W/291 1 13 1014 12,51
2026-05-07 00:40 W/291 3 13 1014 12,45
2026-05-07 00:50 W/285 2 13 1014 12,49
2026-05-07 01:00 W/280 2 13 1014 12,52
2026-05-07 01:10 W/256 3 13 1014 12,45
2026-05-07 01:20 W/251 1 13 1014 12,49
2026-05-07 01:30 W/250 3 12 1014 12,61
2026-05-07 01:40 S/169 6 12 1014 12,43
2026-05-07 01:50 SO/140 4 12 1014 12,46
2026-05-07 02:00 SO/137 4 12 1014 12,43
2026-05-07 02:10 SO/136 2 12 1014 12,45
2026-05-07 02:20 SO/148 2 12 1014 12,43
2026-05-07 02:30 S/184 4 12 1014 12,55
2026-05-07 02:41 S/166 6 12 1014 12,45
2026-05-07 02:51 SO/147 5 11 1014 12,51
2026-05-07 03:01 SO/137 5 11 1014 12,58
2026-05-07 03:11 SO/132 3 11 1014 12,57
2026-05-07 03:21 S/170 5 11 1014 12,54
2026-05-07 03:31 SO/146 3 11 1014 12,52
2026-05-07 03:41 S/163 3 11 1014 12,46
2026-05-07 03:51 SO/153 5 11 1014 12,40
2026-05-07 04:01 SO/148 6 11 1014 12,40
2026-05-07 04:11 SO/136 4 11 1014 12,39
2026-05-07 04:21 SW/218 3 11 1014 12,40
2026-05-07 04:31 SW/222 4 11 1014 12,36
2026-05-07 04:41 SO/148 2 11 1014 12,38
2026-05-07 04:51 SO/138 3 11 1014 12,36
2026-05-07 05:01 SO/136 5 11 1014 12,36
2026-05-07 05:11 SO/136 5 11 1015 12,36
2026-05-07 05:22 SO/136 4 11 1014 12,36
2026-05-07 05:32 SO/136 3 11 1015 12,48
2026-05-07 05:42 SO/136 1 11 1015 12,35
2026-05-07 05:52 SO/136 0 11 1015 12,35
2026-05-07 06:02 SO/136 1 11 1015 12,35
2026-05-07 06:12 SO/143 4 11 1015 12,33
2026-05-07 06:22 SO/138 6 11 1015 12,43
2026-05-07 06:32 SO/141 4 11 1015 12,32
2026-05-07 06:42 SO/142 4 11 1015 12,32
2026-05-07 06:52 SO/147 4 11 1015 12,32
2026-05-07 07:02 SO/149 2 11 1015 12,32
2026-05-07 07:12 SO/147 4 11 1015 12,30
2026-05-07 07:22 S/163 5 11 1015 12,32
2026-05-07 07:32 S/175 5 11 1015 12,33
2026-05-07 07:42 S/160 4 11 1016 12,30
2026-05-07 07:53 SO/151 5 11 1016 12,32
2026-05-07 08:03 SO/149 3 11 1016 12,30
2026-05-07 08:13 SO/148 3 11 1016 12,32
2026-05-07 08:23 SO/148 2 11 1016 12,33
2026-05-07 08:33 NO/66 3 12 1016 12,36
2026-05-07 08:43 O/101 2 12 1016 12,35
2026-05-07 08:53 NW/321 2 12 1016 12,33
2026-05-07 09:03 NW/310 3 12 1016 12,36
2026-05-07 09:13 NW/309 1 12 1016 12,35
2026-05-07 09:23 NW/309 2 12 1017 12,39
2026-05-07 09:33 S/192 3 12 1017 12,38
2026-05-07 09:43 S/202 3 12 1017 12,43
2026-05-07 09:53 NW/295 9 13 1017 12,42
2026-05-07 10:03 NW/313 10 13 1017 12,49
2026-05-07 10:13 NW/306 6 13 1017 12,46
2026-05-07 10:23 W/261 6 13 1017 12,51
2026-05-07 10:34 SW/224 4 13 1017 12,48
2026-05-07 10:44 SW/216 2 13 1017 12,54
2026-05-07 10:54 SW/243 6 13 1017 12,58
2026-05-07 11:04 W/263 6 13 1017 12,55
2026-05-07 11:14 SW/234 5 14 1017 12,57
2026-05-07 11:24 SW/214 6 14 1017 12,57
2026-05-07 11:34 SW/215 7 14 1017 12,61
2026-05-07 11:44 S/201 14 14 1017 12,64
2026-05-07 11:54 S/181 17 14 1017 12,54
2026-05-07 12:04 S/177 15 14 1017 12,55
2026-05-07 12:14 S/185 14 14 1017 12,60
2026-05-07 12:24 S/188 13 14 1017 12,49
2026-05-07 12:34 S/185 15 15 1017 12,52
2026-05-07 12:44 S/195 13 15 1017 12,57
2026-05-07 12:55 SW/226 6 15 1017 12,60
2026-05-07 13:05 N/342 7 16 1017 12,48
2026-05-07 13:15 N/5 9 16 1017 12,51
2026-05-07 13:25 W/284 6 17 1017 12,54
2026-05-07 13:35 W/263 7 17 1017 12,58
2026-05-07 13:45 W/278 9 18 1017 12,60
2026-05-07 13:55 SW/237 11 18 1017 12,58
2026-05-07 14:05 S/186 11 17 1017 12,23
2026-05-07 14:15 S/169 7 17 1017 12,45
2026-05-07 14:25 S/186 5 17 1017 12,51
2026-05-07 14:35 SO/142 7 17 1017 12,54
2026-05-07 14:45 NW/319 13 18 1017 12,55
2026-05-07 14:55 NW/310 15 18 1017 12,71
2026-05-07 15:05 NW/308 16 18 1017 12,68
2026-05-07 15:15 W/273 17 18 1017 12,38
2026-05-07 15:26 SW/231 20 17 1017 12,58